TimeMDT,TemperatureF,Dew PointF,Humidity,Sea Level PressureIn,VisibilityMPH,Wind Direction,Wind SpeedMPH,Gust SpeedMPH,PrecipitationIn,Events,Conditions,WindDirDegrees,DateUTC
12:52 AM,39.0,16.0,39,29.71,10.0,SSE,23.0,35.7,N/A,,Overcast,160,2013-03-21 06:52:00
1:52 AM,37.9,18.0,45,29.68,-9999.0,SSE,26.5,41.4,0.00,,Mostly Cloudy,150,2013-03-21 07:52:00
2:52 AM,36.0,17.1,46,29.70,-9999.0,SSE,16.1,25.3,N/A,,Clear,150,2013-03-21 08:52:00
3:52 AM,34.0,18.0,52,29.68,-9999.0,SSE,12.7,24.2,N/A,,Clear,160,2013-03-21 09:52:00
4:52 AM,32.0,18.0,56,29.67,-9999.0,South,11.5,21.9,N/A,,Clear,170,2013-03-21 10:52:00
5:52 AM,30.9,18.0,59,29.68,-9999.0,Variable,4.6,-,N/A,,Clear,0,2013-03-21 11:52:00
6:52 AM,30.0,18.0,61,29.69,-9999.0,SE,5.8,-,N/A,,Clear,130,2013-03-21 12:52:00
7:52 AM,30.9,19.0,61,29.67,-9999.0,South,10.4,20.7,N/A,,Clear,170,2013-03-21 13:52:00
8:52 AM,33.1,19.9,59,29.67,-9999.0,South,12.7,19.6,N/A,,Clear,170,2013-03-21 14:52:00
9:52 AM,37.9,21.0,51,29.65,-9999.0,South,13.8,-,N/A,,Clear,170,2013-03-21 15:52:00
10:52 AM,41.0,21.0,45,29.64,-9999.0,SSE,13.8,-,N/A,,Clear,160,2013-03-21 16:52:00
11:52 AM,44.1,21.9,42,29.63,10.0,South,13.8,-,0.10,,Clear,190,2013-03-21 17:52:00
12:52 PM,44.1,21.0,40,29.63,10.0,SSE,12.7,20.7,N/A,,Overcast,160,2013-03-21 18:52:00
1:52 PM,43.0,21.0,42,29.63,10.0,South,17.3,-,N/A,,Overcast,180,2013-03-21 19:52:00
2:52 PM,41.0,25.0,53,29.64,10.0,SSE,11.5,-,0.00,,Overcast,160,2013-03-21 20:52:00
3:39 PM,35.6,28.4,75,29.63,3.0,South,10.4,-,0.00,Snow,Light Snow,180,2013-03-21 21:39:00
3:46 PM,35.6,30.2,81,29.64,1.8,South,8.1,-,0.00,Snow,Light Snow,190,2013-03-21 21:46:00
3:52 PM,34.0,30.0,85,29.69,0.8,SE,4.6,-,0.00,Snow,Light Snow,140,2013-03-21 21:52:00
3:59 PM,33.8,30.2,87,29.63,1.0,SE,4.6,-,0.00,Snow,Light Snow,130,2013-03-21 21:59:00
4:25 PM,33.8,30.2,87,29.64,2.5,ESE,5.8,-,0.03,Snow,Light Snow,120,2013-03-21 22:25:00
4:41 PM,33.8,32.0,93,29.63,3.0,ESE,5.8,-,0.04,Snow,Light Snow,110,2013-03-21 22:41:00
4:52 PM,34.0,30.9,89,29.70,5.0,East,6.9,-,0.04,Snow,Light Snow,80,2013-03-21 22:52:00
5:08 PM,33.8,32.0,93,29.64,5.0,East,5.8,-,0.00,Snow,Light Snow,100,2013-03-21 23:08:00
5:52 PM,34.0,32.0,92,29.74,2.5,Calm,Calm,-,0.01,Snow,Light Snow,0,2013-03-21 23:52:00
6:03 PM,33.8,32.0,93,29.68,1.8,Calm,Calm,-,0.01,Snow,Light Snow,0,2013-03-22 00:03:00
6:15 PM,33.8,30.2,87,29.68,0.8,Calm,Calm,-,0.01,Snow,Light Snow,0,2013-03-22 00:15:00
6:30 PM,33.8,30.2,87,29.68,0.5,Calm,Calm,-,0.02,Fog-Snow,Snow,0,2013-03-22 00:30:00
6:50 PM,33.8,30.2,87,29.69,0.8,Calm,Calm,-,0.02,Snow,Light Snow,0,2013-03-22 00:50:00
6:52 PM,33.1,30.9,92,29.76,0.8,Calm,Calm,-,0.02,Snow,Light Snow,0,2013-03-22 00:52:00
6:59 PM,33.8,30.2,87,29.69,1.2,Calm,Calm,-,0.01,Snow,Light Snow,0,2013-03-22 00:59:00
7:16 PM,33.8,30.2,87,29.69,2.5,Calm,Calm,-,0.02,Snow,Light Snow,0,2013-03-22 01:16:00
7:23 PM,33.8,32.0,93,29.70,2.5,Calm,Calm,-,0.02,Snow,Light Snow,0,2013-03-22 01:23:00
7:32 PM,33.8,32.0,93,29.70,1.5,Calm,Calm,-,0.03,Snow,Light Snow,0,2013-03-22 01:32:00
7:45 PM,32.0,30.2,93,29.70,0.8,Calm,Calm,-,0.03,Snow,Light Snow,0,2013-03-22 01:45:00
7:52 PM,32.0,30.9,96,29.78,0.8,Calm,Calm,-,0.03,Snow,Light Snow,0,2013-03-22 01:52:00
8:09 PM,32.0,30.2,93,29.71,0.8,Calm,Calm,-,0.01,Snow,Light Snow,0,2013-03-22 02:09:00
8:18 PM,32.0,32.0,100,29.72,1.0,Calm,Calm,-,0.02,Snow,Light Snow,0,2013-03-22 02:18:00
8:36 PM,32.0,30.2,93,29.72,2.0,Calm,Calm,-,0.03,Snow,Light Snow,0,2013-03-22 02:36:00
8:52 PM,32.0,32.0,100,29.79,2.0,South,3.5,-,0.03,Snow,Light Snow,180,2013-03-22 02:52:00
9:16 PM,32.0,30.2,93,29.73,3.0,Calm,Calm,-,0.01,Snow,Light Snow,0,2013-03-22 03:16:00
9:52 PM,33.1,30.9,92,29.79,3.0,WSW,8.1,-,0.02,Snow,Light Snow,250,2013-03-22 03:52:00
9:56 PM,33.8,30.2,87,29.74,2.5,WSW,9.2,-,0.00,Snow,Light Snow,250,2013-03-22 03:56:00
10:21 PM,32.0,30.2,93,29.74,3.0,WSW,6.9,-,0.01,Snow,Light Snow,250,2013-03-22 04:21:00
10:34 PM,32.0,30.2,93,29.74,2.5,WSW,8.1,-,0.02,Snow,Light Snow,250,2013-03-22 04:34:00
10:52 PM,32.0,30.9,96,29.80,3.0,WNW,10.4,-,0.02,Snow,Light Snow,300,2013-03-22 04:52:00
11:11 PM,30.2,30.2,100,29.75,2.5,NW,16.1,-,0.01,Snow,Light Snow,310,2013-03-22 05:11:00
11:33 PM,28.4,26.6,93,29.77,3.0,NNW,15.0,-,0.01,Snow,Light Snow,330,2013-03-22 05:33:00
11:52 PM,28.0,26.1,92,29.83,6.0,NW,13.8,19.6,0.01,Snow,Light Snow,320,2013-03-22 05:52:00